Regional Weather Roundup
Issued by NWS

Home | Current Version | Previous Version | Text Only | Print | Product List | Glossary On
Versions: 1 2 3 4 5 6 7 8 9 10 11 12 13 14 15 16 17 18 19 20 21 22 23 24 25 26 27 28 29 30 31 32 33 34 35 36 37 38 39 40 41 42 43 44 45 46 47 48 49 50
000
ASUS43 KDTX 282301
RWRMI
MICHIGAN HOURLY REGIONAL WEATHER ROUNDUP
NATIONAL WEATHER SERVICE DETROIT/PONTIAC MI
700 PM EDT TUE JUL 28 2015

NOTE: "FAIR" INDICATES FEW OR NO CLOUDS BELOW 12,000 FEET WITH NO
SIGNIFICANT WEATHER AND/OR OBSTRUCTION TO VISIBILITY.

MIZ047>049-052>055-059>063-066>070-074>076-081>083-290000-
SOUTHEAST LOWER MICHIGAN

CITY           SKY/WX    TMP DP  RH WIND       PRES   REMARKS
ADRIAN         PTSUNNY   85  63  47 E7        29.97F
ALMA           PTSUNNY   86  62  43 SE7       29.96F
ANN ARBOR      PTSUNNY   83  61  47 S6        29.97F
BAD AXE        PTSUNNY   83  62  47 SE3       29.98F
CARO           MOSUNNY   85  65  51 CALM      29.96F
DETROIT CITY   PTSUNNY   86  62  44 SE9       29.97F
DETROIT        PTSUNNY   86  61  42 SE9       29.97F
FLINT          PTSUNNY   86  63  45 SW5       29.97F
GROSSE ILE     PTSUNNY   82  72  69 S5        29.96F
HILLSDALE      PTSUNNY   85  64  48 SE5       29.98F
HOWELL         PTSUNNY   87  60  40 S6        29.98S

CITY           SKY/WX    TMP DP  RH WIND       PRES   REMARKS
JACKSON        PTSUNNY   86  61  42 SE8       29.97F
LAMBERTVILLE   PTSUNNY   83  61  46 E3        29.97F
LANSING        PTSUNNY   87  62  43 SE9       29.96F
LAPEER         FAIR      86  61  42 S5        29.98S
MASON          PTSUNNY   84  61  46 SE6       29.97F
MONROE         PTSUNNY   82  64  53 CALM      29.96F
MT. CLEMENS    PTSUNNY   86  62  43 SE8       29.96F
PONTIAC        PTSUNNY   88  57  34 SE9       29.97F
PORT HOPE        N/A     78  71  79 SE8       29.97F
PORT HURON     CLOUDY    82  70  65 CALM      29.98S
TRI CITIES     PTSUNNY   88  63  43 S6        29.97F
MIDLAND        FAIR      88  58  35 S8        29.95S
TROY           PTSUNNY   89  58  34 E5        29.99F
SAGINAW HB     MOSUNNY   88  63  42 CALM      29.96S
$$
MIZ043>046-050>051-056>058-064>065-071>073-077>080-290000-
SOUTHWEST LOWER MICHIGAN

CITY           SKY/WX    TMP DP  RH WIND       PRES   REMARKS
BATTLE CREEK   MOSUNNY   87  64  46 S10       29.96F
BENTON HARBOR  MOSUNNY   86  70  58 E9        29.89F HX  90
BIG RAPIDS     MOSUNNY   84  56  37 SE9       29.94F
COLDWATER      MOSUNNY   83  63  51 SE5       29.96F
FREMONT        FAIR      85  58  39 E6        29.93R
HOLLAND        MOSUNNY   87  67  51 SE8       29.92F HX  90
GRAND RAPIDS   PTSUNNY   85  63  47 SE9       29.93F
IONIA          FAIR      85  64  49 SE7       29.94F
KALAMAZOO      MOSUNNY   87  63  44 SE6       29.94F
MARSHALL       PTSUNNY   86  64  47 SE5       29.95F
MOUNT PLEASANT PTSUNNY   87  59  38 SE7       29.95F
MUSKEGON       PTSUNNY   88  61  40 S5        29.91F
SOUTH HAVEN    SUNNY     85  66  52 SE7       29.91S
$$
MIZ016>042-290000-
NORTHERN LOWER MICHIGAN

CITY           SKY/WX    TMP DP  RH WIND       PRES   REMARKS
ALPENA         MOSUNNY   86  67  52 SE8       29.96S
BEAVER ISLAND  PTSUNNY   82  61  48 CALM      29.93F
BELLAIRE       PTSUNNY   87  63  44 NE8       29.93F
CADILLAC       MOSUNNY   85  59  40 SE8       29.96F
CHARLEVOIX     PTSUNNY   80  62  53 CALM      29.97F
FRANKFORT      MOSUNNY   83  60  46 SW3       29.92S
GAYLORD        MOSUNNY   86  63  45 VRB5      29.97F
GRAYLING       MOSUNNY   88  60  39 S6        29.98F
HARBOR SPRINGS PTSUNNY   78  67  67 CALM      29.94F
HOUGHTON LAKE  MOSUNNY   86  59  39 S7        29.98F
MANISTEE       PTSUNNY   88  61  40 S8        29.93R
OSCODA         MOSUNNY   82  65  56 SE8       29.96S
PELLSTON       PTSUNNY   84  62  47 N7        29.95F
ROGERS CITY    MOSUNNY   87  62  42 SE10G17   29.95F
TRAVERSE CITY  PTSUNNY   82  65  56 NE12      29.91F
$$
MIZ007>008-015-290000-
EASTERN UPPER MICHIGAN

CITY           SKY/WX    TMP DP  RH WIND       PRES   REMARKS
KINROSS        MOSUNNY   86  61  42 S6        29.95S
MACKINAC ISLAN MOSUNNY   80  64  57 CALM      29.96F
MUNISING         N/A     84  62  47 S7        29.88F
$$
MIZ004>006-011>014-085-290000-
CENTRAL UPPER MICHIGAN

CITY           SKY/WX    TMP DP  RH WIND       PRES   REMARKS
ESCANABA       CLOUDY    77  64  65 S7        29.90F
MENOMINEE      PTSUNNY   79  63  57 S13G18    29.90F
SAWYER-GWINN   SUNNY     81  63  54 S15       29.91S
$$
MIZ001>003-009>011-084-290000-
WESTERN UPPER MICHIGAN

CITY           SKY/WX    TMP DP  RH WIND       PRES   REMARKS
IRON MOUNTAIN  MOSUNNY   83  64  52 S8        29.90S
HOUGHTON       PTSUNNY   82  64  54 S10       29.85S
COPPER HARBOR    N/A     78  62  57 SW9       29.82S
IRONWOOD       SUNNY     84  68  58 S10G16    29.79F
$$

ABBREVIATIONS USED IN REMARKS
   TC - TEMPERATURE IN CELSIUS
  WCI - WIND CHILL INDEX
   HX - HEAT INDEX
  VSB - VISIBILITY



USA.gov is the U.S. government's official web portal to all federal, state and local government web resources and services.